Overview Statistics Trail Chart Weather Telemetry Raw packets
 

This is the latest recevied weather packets stored in our database for station/object N7WSS. If no packets are shown the sender has not sent any weather packets the latest 10 day(s).

<< 79 80 81 82 83 84 85 >>
Time Temp. Humidity Pressure Rain* Wind** Luminosity Snow
1788055569 30° C 45% 1012.7 hPa 0 mm - - -
1788055265 30° C 45% 1012.5 hPa 0 mm - - -
1788054964 30° C 46% 1012.5 hPa 0 mm - - -
1788054660 30° C 46% 1012.5 hPa 0 mm - - -
1788054355 30.56° C 45% 1012.3 hPa 0 mm - - -
1788054051 30.56° C 44% 1012.4 hPa 0 mm - - -
1788053747 31.11° C 43% 1012.5 hPa 0 mm - - -
1788053442 31.11° C 42% 1012.5 hPa 0 mm - - -
1788053141 31.11° C 41% 1012.6 hPa 0 mm - - -
1788052838 31.11° C 41% 1012.4 hPa 0 mm - - -
1788052538 31.67° C 40% 1011.8 hPa 0 mm - - -
1788052233 31.67° C 40% 1011.6 hPa 0 mm - - -
1788051928 31.67° C 40% 1012 hPa 0 mm - - -
1788051624 31.67° C 40% 1012.1 hPa 0 mm - - -
1788051321 31.67° C 39% 1012.4 hPa 0 mm - - -
1788051021 31.67° C 39% 1012.1 hPa 0 mm - - -
1788050721 32.22° C 39% 1011.7 hPa 0 mm - - -
1788050420 32.22° C 39% 1011.8 hPa 0 mm - - -
1788050115 32.78° C 39% 1011.7 hPa 0 mm - - -
1788049810 32.78° C 39% 1011.7 hPa 0 mm - - -
1788049509 32.78° C 39% 1011.5 hPa 0 mm - - -
1788049205 33.33° C 38% 1011.5 hPa 0 mm - - -
1788048900 33.33° C 37% 1011.4 hPa 0 mm - - -
1788048595 32.78° C 37% 1011.3 hPa 0 mm - - -
1788048292 32.78° C 37% 1011.3 hPa 0 mm - - -

* Rain latest hour (hover to see other rain measurements)
** Current wind speed in m/s (hover to see current wind gust speed)